STARLINK-35176

Last updated on Mon Oct 20 2025 00:02:05 GMT+0000 (Coordinated Universal Time)

1 65662U 25211L 25292.25002315 -.02480752 00000+0 -57790-1 0 9992 2 65662 97.6036 334.4158 0001626 74.9081 315.7873 15.45801814 5770

Satellite not in orbit

STARLINK-35176